When you browse on this site, cookies collect data to enhance your experience and personalize the content and advertising you see.
Visit our Privacy Policy to learn more. By continuing to use the site, you agree to this use of cookies and data.
  • In Lithuania
  • List of Countries
  • For 7 days
  • Water Temperature
  • Weather Map
  • Weather Widgets
  • user-avatar
    Login

    Hourly Weather Zhitin

    Today, 18 September, Wednesday

    Time Temperature Precipitation Wind Pressure Humidity
    00:00 +7°C° 0.4 mm 6 mps 739 mmHg 85%
    01:00 +6°C° 0.4 mm 7 mps 739 mmHg 84%
    02:00 +6°C° 0 mm 7 mps 739 mmHg 84%
    03:00 +5°C° 0 mm 7 mps 739 mmHg 84%
    04:00 +5°C° 0 mm 8 mps 739 mmHg 84%
    05:00 +4°C° 0 mm 8 mps 739 mmHg 84%
    06:00 +5°C° 0.1 mm 8 mps 739 mmHg 84%
    07:00 +5°C° 0.1 mm 7 mps 740 mmHg 83%
    08:00 +5°C° 0 mm 7 mps 740 mmHg 81%
    09:00 +6°C° 0.9 mm 7 mps 741 mmHg 79%
    10:00 +7°C° 0.9 mm 8 mps 741 mmHg 78%
    11:00 +9°C° 0.9 mm 8 mps 742 mmHg 76%
    12:00 +10°C° 0.2 mm 8 mps 743 mmHg 72%
    13:00 +11°C° 0.2 mm 8 mps 743 mmHg 68%
    14:00 +11°C° 0.2 mm 9 mps 744 mmHg 64%
    15:00 +11°C° 0.2 mm 8 mps 744 mmHg 64%
    16:00 +11°C° 0.2 mm 7 mps 745 mmHg 64%
    17:00 +11°C° 0.2 mm 6 mps 745 mmHg 64%
    18:00 +10°C° 0 mm 6 mps 746 mmHg 67%
    19:00 +9°C° 0 mm 5 mps 746 mmHg 71%
    20:00 +8°C° 0 mm 5 mps 747 mmHg 75%
    21:00 +8°C° 0 mm 5 mps 747 mmHg 77%
    22:00 +7°C° 0 mm 5 mps 747 mmHg 80%
    23:00 +7°C° 0 mm 4 mps 748 mmHg 82%

    Tomorrow, 19 September, Thursday

    Time Temperature Precipitation Wind Pressure Humidity
    00:00 +6°C° 0 mm 4 mps 748 mmHg 84%
    01:00 +6°C° 0 mm 4 mps 748 mmHg 86%
    02:00 +5°C° 0 mm 4 mps 748 mmHg 88%
    03:00 +5°C° 0 mm 4 mps 749 mmHg 89%
    04:00 +5°C° 0 mm 4 mps 749 mmHg 90%
    05:00 +5°C° 0 mm 4 mps 749 mmHg 92%
    06:00 +6°C° 0.1 mm 5 mps 749 mmHg 89%
    07:00 +6°C° 0.1 mm 5 mps 750 mmHg 86%
    08:00 +7°C° 0.1 mm 5 mps 750 mmHg 84%
    09:00 +8°C° 0.1 mm 5 mps 750 mmHg 78%
    10:00 +10°C° 0.1 mm 5 mps 750 mmHg 72%
    11:00 +11°C° 0.1 mm 6 mps 751 mmHg 66%
    12:00 +13°C° 0.4 mm 6 mps 751 mmHg 64%
    13:00 +13°C° 0.4 mm 6 mps 750 mmHg 62%
    14:00 +14°C° 0.4 mm 6 mps 750 mmHg 59%
    15:00 +13°C° 0.2 mm 5 mps 750 mmHg 61%
    16:00 +13°C° 0.2 mm 5 mps 751 mmHg 62%
    17:00 +13°C° 0.2 mm 4 mps 751 mmHg 64%
    18:00 +12°C° 0.3 mm 4 mps 751 mmHg 69%
    19:00 +10°C° 0.3 mm 3 mps 751 mmHg 75%
    20:00 +9°C° 0.3 mm 3 mps 751 mmHg 81%
    21:00 +9°C° 0.1 mm 3 mps 751 mmHg 82%
    22:00 +8°C° 0.1 mm 3 mps 751 mmHg 83%
    23:00 +7°C° 0.1 mm 4 mps 752 mmHg 83%

    Day after tomorrow, 20 September, Friday

    Time Temperature Precipitation Wind Pressure Humidity
    00:00 +6°C° 0 mm 4 mps 752 mmHg 86%
    01:00 +6°C° 0 mm 4 mps 752 mmHg 90%
    02:00 +5°C° 0 mm 4 mps 752 mmHg 93%
    03:00 +5°C° 0 mm 4 mps 752 mmHg 93%
    04:00 +4°C° 0 mm 4 mps 752 mmHg 93%
    05:00 +4°C° 0 mm 4 mps 752 mmHg 94%
    06:00 +5°C° 0 mm 4 mps 753 mmHg 90%
    07:00 +5°C° 0 mm 4 mps 753 mmHg 87%
    08:00 +6°C° 0 mm 5 mps 753 mmHg 84%
    09:00 +7°C° 0 mm 5 mps 753 mmHg 73%
    10:00 +9°C° 0 mm 5 mps 754 mmHg 62%
    11:00 +10°C° 0 mm 6 mps 754 mmHg 52%
    12:00 +11°C° 0 mm 6 mps 754 mmHg 49%
    13:00 +11°C° 0 mm 6 mps 754 mmHg 47%
    14:00 +13°C° 0 mm 6 mps 754 mmHg 45%
    15:00 +13°C° 0.1 mm 5 mps 754 mmHg 48%
    16:00 +12°C° 0.1 mm 5 mps 754 mmHg 50%
    17:00 +12°C° 0.1 mm 4 mps 754 mmHg 53%
    18:00 +11°C° 0 mm 3 mps 754 mmHg 60%
    19:00 +9°C° 0 mm 3 mps 754 mmHg 67%
    20:00 +8°C° 0 mm 2 mps 754 mmHg 74%
    21:00 +7°C° 0 mm 2 mps 754 mmHg 76%
    22:00 +7°C° 0 mm 2 mps 755 mmHg 78%
    23:00 +7°C° 0 mm 2 mps 755 mmHg 80%

    21 September, Saturday

    Time Temperature Precipitation Wind Pressure Humidity
    00:00 +6°C° 0 mm 2 mps 755 mmHg 82%
    01:00 +6°C° 0 mm 2 mps 755 mmHg 84%
    02:00 +6°C° 0 mm 2 mps 755 mmHg 86%
    03:00 +6°C° 0 mm 2 mps 754 mmHg 84%
    04:00 +5°C° 0 mm 3 mps 754 mmHg 82%
    05:00 +5°C° 0 mm 3 mps 754 mmHg 80%
    06:00 +6°C° 0 mm 4 mps 754 mmHg 79%
    07:00 +7°C° 0 mm 4 mps 754 mmHg 78%
    08:00 +8°C° 0 mm 5 mps 754 mmHg 77%
    09:00 +10°C° 0 mm 5 mps 754 mmHg 71%
    10:00 +12°C° 0 mm 5 mps 754 mmHg 65%
    11:00 +14°C° 0 mm 6 mps 754 mmHg 59%
    12:00 +15°C° 0 mm 6 mps 754 mmHg 58%
    13:00 +15°C° 0 mm 6 mps 753 mmHg 56%
    14:00 +16°C° 0 mm 6 mps 753 mmHg 55%
    15:00 +16°C° 0 mm 6 mps 753 mmHg 56%
    16:00 +16°C° 0 mm 5 mps 753 mmHg 57%
    17:00 +16°C° 0 mm 5 mps 752 mmHg 58%
    18:00 +14°C° 0 mm 4 mps 752 mmHg 62%
    19:00 +13°C° 0 mm 4 mps 752 mmHg 67%
    20:00 +11°C° 0 mm 3 mps 752 mmHg 71%
    21:00 +11°C° 0 mm 3 mps 752 mmHg 73%
    22:00 +10°C° 0 mm 3 mps 752 mmHg 74%
    23:00 +10°C° 0 mm 3 mps 752 mmHg 75%

    22 September, Sunday

    Time Temperature Precipitation Wind Pressure Humidity
    00:00 +10°C° 0 mm 3 mps 752 mmHg 76%
    01:00 +9°C° 0 mm 3 mps 752 mmHg 77%
    02:00 +9°C° 0 mm 3 mps 752 mmHg 78%
    03:00 +9°C° 0 mm 3 mps 751 mmHg 80%
    04:00 +8°C° 0 mm 3 mps 751 mmHg 81%
    05:00 +8°C° 0 mm 3 mps 751 mmHg 83%
    06:00 +9°C° 0 mm 3 mps 751 mmHg 80%
    07:00 +10°C° 0 mm 3 mps 751 mmHg 77%
    08:00 +11°C° 0 mm 3 mps 751 mmHg 74%
    09:00 +13°C° 0 mm 3 mps 751 mmHg 69%
    10:00 +14°C° 0 mm 3 mps 751 mmHg 64%
    11:00 +17°C° 0 mm 3 mps 751 mmHg 59%
    12:00 +18°C° 0 mm 2 mps 751 mmHg 55%
    13:00 +19°C° 0 mm 2 mps 751 mmHg 52%
    14:00 +20°C° 0 mm 2 mps 750 mmHg 49%
    15:00 +21°C° 0 mm 1 mps 750 mmHg 51%
    16:00 +21°C° 0 mm 1 mps 750 mmHg 53%
    17:00 +19°C° 0 mm 0 mps 749 mmHg 55%
    18:00 +19°C° 0 mm 1 mps 749 mmHg 58%
    19:00 +16°C° 0 mm 1 mps 749 mmHg 62%
    20:00 +14°C° 0 mm 1 mps 749 mmHg 66%
    21:00 +14°C° 0 mm 2 mps 749 mmHg 69%
    22:00 +13°C° 0 mm 2 mps 749 mmHg 72%
    23:00 +11°C° 0 mm 3 mps 748 mmHg 76%

    23 September, Monday

    Time Temperature Precipitation Wind Pressure Humidity
    00:00 +11°C° 0 mm 3 mps 748 mmHg 77%
    01:00 +11°C° 0 mm 3 mps 748 mmHg 78%
    02:00 +10°C° 0 mm 4 mps 747 mmHg 79%
    03:00 +10°C° 0 mm 4 mps 747 mmHg 78%
    04:00 +10°C° 0 mm 4 mps 746 mmHg 76%
    05:00 +10°C° 0 mm 4 mps 745 mmHg 74%
    06:00 +11°C° 0 mm 4 mps 745 mmHg 69%
    07:00 +12°C° 0 mm 4 mps 744 mmHg 64%
    08:00 +12°C° 0 mm 4 mps 744 mmHg 59%
    09:00 +14°C° 0 mm 4 mps 743 mmHg 55%
    10:00 +16°C° 0 mm 3 mps 743 mmHg 52%
    11:00 +18°C° 0 mm 3 mps 743 mmHg 48%
    12:00 +19°C° 0 mm 3 mps 742 mmHg 45%
    13:00 +20°C° 0 mm 2 mps 742 mmHg 42%
    14:00 +23°C° 0 mm 2 mps 741 mmHg 39%
    15:00 +21°C° 0 mm 2 mps 741 mmHg 42%
    16:00 +22°C° 0 mm 1 mps 740 mmHg 45%
    17:00 +22°C° 0 mm 1 mps 740 mmHg 49%
    18:00 +20°C° 0 mm 1 mps 740 mmHg 53%
    19:00 +18°C° 0 mm 1 mps 740 mmHg 58%
    20:00 +15°C° 0 mm 1 mps 740 mmHg 63%
    21:00 +14°C° 0 mm 2 mps 740 mmHg 65%
    22:00 +14°C° 0 mm 2 mps 740 mmHg 67%
    23:00 +13°C° 0 mm 2 mps 740 mmHg 69%
    Show more